Regional Weather Roundup
Issued by NWS

Home | Current Version | Previous Version | Graphics & Text | Print | Product List | Glossary On
Versions: 1 2 3 4 5 6 7 8 9 10 11 12 13 14 15 16 17 18 19 20 21 22 23 24 25 26 27 28 29 30 31 32 33 34 35 36 37 38 39 40 41 42 43 44 45 46 47 48 49 50
000
ASUS45 KPSR 100510
RWRAZ

ARIZONA HOURLY REGIONAL WEATHER ROUNDUP
NATIONAL WEATHER SERVICE PHOENIX AZ
1000 PM MST TUE FEB 09 2016

NOTE: FAIR INDICATES FEW OR NO CLOUDS BELOW 12,000 FEET WITH NO
SIGNIFICANT WEATHER AND/OR OBSTRUCTIONS TO VISIBILITY.

AZZ001>003-036-100600-
NORTHWEST ARIZONA

CITY           SKY/WX    TMP DP  RH WIND       PRES   REMARKS
KINGMAN        CLEAR     47  25  42 E10       30.29S
$$

AZZ004>008-015-016-018-100600-
NORTH CENTRAL ARIZONA

CITY           SKY/WX    TMP DP  RH WIND       PRES   REMARKS
GRAND CANYON   PTCLDY    31  21  66 NE7       30.44S WCI  24
WILLIAMS       CLEAR     32  18  55 S6        30.47R WCI  26
PRESCOTT       CLEAR     45  18  34 SW3       30.34R
FLAGSTAFF      CLEAR     27  15  61 CALM      30.44R
PAYSON         CLEAR     54  10  17 NE8       30.35S
PAGE           CLEAR     40  26  57 CALM      30.42R
$$

AZZ009>014-017-100600-
NORTHEAST ARIZONA

CITY           SKY/WX    TMP DP  RH WIND       PRES   REMARKS
WINSLOW        CLEAR     35  19  52 CALM      30.40R
SAINT JOHNS    CLEAR     35  20  54 S6        30.40R WCI  30
WINDOW ROCK    CLEAR     29   0  28 CALM      30.44R
SHOW LOW       CLEAR     34  18  51 E3        30.43R
$$

AZZ023-100600-
GREATER PHOENIX AREA

CITY           SKY/WX    TMP DP  RH WIND       PRES   REMARKS
PHOENIX        CLEAR     69  28  21 SE5       30.13R
BUCKEYE        CLEAR     61  25  25 N13       30.15S
LUKE AFB       CLEAR     62  29  28 NE8       30.13R
DEER VALLEY    CLEAR     64  27  24 NE9       30.15R
SCOTTSDALE     CLEAR     64  28  25 NE6       30.16S
MESA-GATEWAY   CLEAR     61  28  29 E8        30.15R
$$

AZZ027-028-100600-
SOUTHWEST MARICOPA COUNTY AND PINAL COUNTY

CITY           SKY/WX    TMP DP  RH WIND       PRES   REMARKS
CASA GRANDE    CLEAR     59  27  29 NE6       30.15R
GILA BEND      FAIR      56  30  36 SE9       30.12R
$$

AZZ503-504-507>509-100600-
SOUTHEAST ARIZONA

CITY           SKY/WX    TMP DP  RH WIND       PRES   REMARKS
TUCSON         CLEAR     62  18  18 VRB5      30.21R
DAVIS-MONTHAN  CLEAR     57  21  24 S2        30.19R
NOGALES        CLEAR     53  17  24 VRB3      30.23R
SIERRA VISTA   CLEAR     46  21  36 S3        30.30R
DOUGLAS        CLEAR     52  16  24 N7        30.29R
SAFFORD        CLEAR     49  23  36 E5        30.25R
$$

AZZ020-021-025-026-031-100600-
SOUTHWEST ARIZONA

CITY           SKY/WX    TMP DP  RH WIND       PRES   REMARKS
YUMA           CLEAR     68  26  20 N3        30.11R
$$

CAZ031-033-041-043-047-048-061-100600-
SOUTHERN CALIFORNIA

CITY           SKY/WX    TMP DP  RH WIND       PRES   REMARKS
DOWNTOWN L.A.  CLEAR     67  39  35 CALM      30.10R
L.A. AIRPORT   PTCLDY    65  49  56 SW3       30.10S
SAN DIEGO      PTCLDY    70  38  31 CALM      30.09R
BURBANK        CLEAR     70  27  20 NW7       30.12R
ONTARIO        PTCLDY    67  28  23 NW3       30.13R
RIVERSIDE      CLEAR     69  23  17 E5        30.12R
PALM SPRINGS   CLEAR     67  29  24 NW6       30.15S
EL CENTRO NAS  CLEAR     60  25  26 W8        30.13S
IMPERIAL       CLEAR     61  29  29 SW3       30.11R
BLYTHE         CLEAR     63  24  22 N9        30.14S
NEEDLES        CLEAR     66  25  21 NW8       30.18S
$$

NVZ020-UTZ003-100600-
SOUTHERN NEVADA-UTAH

CITY           SKY/WX    TMP DP  RH WIND       PRES   REMARKS
LAS VEGAS      CLEAR     60  28  29 W6        30.23R
SALT LAKE CITY PTCLDY    29  26  89 NW3       30.47S FOG
$$

NMZ009-TXZ055-100600-
NEW MEXICO-WEST TEXAS

CITY           SKY/WX    TMP DP  RH WIND       PRES   REMARKS
ALBUQUERQUE    CLOUDY    47  20  34 NE6       30.38S
EL PASO        CLEAR     43  17  35 NE9       30.32R
$$


........................KEY........................
SKY/WX - SKY CONDITION/WEATHER
TMP    - TEMPERATURE IN FAHRENHEIT
DP     - DEW POINT IN FAHRENHEIT
RH     - RELATIVE HUMIDITY IN PERCENT
WIND   - DIRECTION AND SPEED IN MILES PER HOUR (MPH)
VRB    - VARIABLE WIND DIRECTION
PRES   - MEAN SEA LEVEL PRESSURE IN INCHES OF MERCURY
         F - FALLING PRESSURE   R - RISING PRESSURE
         S - STEADY PRESSURE
VSB    - VISIBILITY IN MILES
HX     - HEAT INDEX IN FAHRENHEIT
WCI    - WIND CHILL INDEX IN FAHRENHEIT
TC     - TEMPERATURE IN CELSIUS WHICH IS ALSO KNOWN AS
         TEMPERATURE IN CENTIGRADE
AFB    - AIR FORCE BASE
         LUKE AFB IS LUKE AIR FORCE BASE
         DAVIS-MONTHAN IS DAVIS-MONTHAN AIR FORCE BASE
NAS    - NAVAL AIR STATION
         EL CENTRO NAS IS EL CENTRO NAVAL AIR STATION
N/A    - NOT AVAILABLE





USA.gov is the U.S. government's official web portal to all federal, state and local government web resources and services.